User: anonymous
Location: Unspecified
(0.0000°N, 0.0000°E)
Time: 05:21:37
(UTC+00:00)
Language:

KORONAS-FOTON - Orbit

View from above orbital plane
View from above orbital plane
View from above satellite
View from above satellite

Ground track
Ground track

The orbit data is extracted from the following two-line orbital elements,

1 33504U 09003A   14293.06483392  .00004173  00000-0  24546-3 0  1598
2 33504 082.4429 116.2995 0020277 218.5633 279.9158 15.11237432314575
Epoch (UTC): 20 October 2014 01:33:21
Eccentricity: 0.0020277
inclination: 82.4429°
perigee height: 518 km
apogee height: 546 km
right ascension of ascending node: 116.2995°
argument of perigee: 218.5633°
revolutions per day: 15.11237432
mean anomaly at epoch: 279.9158°
orbit number at epoch: 31457

The dashed part of the orbit path shows where the satellite is in the earth's shadow,  

DLR